Location: Castle Hill Houses
(40.8186°N, 73.8497°W)
Time: 10:16:09
(UTC+00:00)

Cosmos 2360 Rocket - Pass Details

Date: 26 January 2020
Orbit: 834 x 845 km, 71.0° (Epoch: 18 February)

Event Time Altitude Azimuth Distance (km) Brightness Sun altitude
Rises 09:53:22 0° 174° (S) 3,387 5.5 -26.1°
Reaches altitude 10° 09:56:02 10° 164° (SSE) 2,457 4.8 -25.6°
Maximum altitude 10:00:56 31° 103° (ESE) 1,436 4.0 -24.6°
Drops below altitude 10° 10:05:51 10° 43° (NE) 2,470 5.1 -23.7°
Sets 10:08:32 0° 34° (NE) 3,409 5.7 -23.2°
